STARLINK-1292, 45394

Orbit data source: Space-Track

STARLINK-1292, 45394 is a payload satellite owned by SpaceX/Seattle (US) in LEO that was launched on Wed, 18 Mar 2020 UTC via an FALCON 9 launch vehicle from the Air Force Eastern Test Range (AFETR). Payload-class satellites include a variety of spacecraft equipped with specific instruments for various scientific and technological missions. These include communications satellites like Starlink; space stations such as the ISS; scientific satellites like the Hubble; Earth observation satellites from companies like Planet Labs, Umbra, and HawkEye 360; GPS; miniature CubeSats for education and research; and military/defense satellites.

Loading next visibility...
Identifier
45394, 2020-019AL
Orbit
LEO
Last TLE update
17 hours ago
Origin
Manufacturer
SpaceX/Seattle
Mission
Operational Commercial Communications
Bus & Motor
STARLINK, Unknown motor
Mass
260 kg wet, ~248 kg dry
Launch date (UTC)
2020-03-18 (5 years ago)
Launch vehicle
FALCON 9
Launch site
Air Force Eastern Test Range (AFETR)
Object type
Payload
Rocket body
Debris
Shape & HBR
Box + 1 Pan, 8.86 m
Radar Cross Section
13.562 m², Large (>1 m²)

Expand to show TLE details & history

TLE from 17 hours ago
0 STARLINK-1292
1 45394U 20019AL  25128.56450995 -.00005749  00000-0 -36770-3 0  9991
2 45394  53.0558  76.3726 0001725  84.2686 275.8499 15.06363081283755
Epoch: 2025-05-08T13:32Z
Definitive object data (Epoch: 2025-05-08T13:32:53.659Z)
Latitude
-0.00008°
Longitude
6.51577°
Altitude
548.082 km
Speed
7.589 km/s
True Right ascension
05h 05m 29s
True Declination
0° 00' 00"
Sunlit
Object was in daylight at TLE epoch
Visualization TLE readout
Latitude
-46.13045°
Longitude
-47.78842°
Altitude
564.077 km
Speed
7.578 km/s
Apparent Right ascension
02h 12m 21s
Apparent Declination
-43° 29' 43"
Sunlit
Object is in daylight
Visualization observer readout
Local Sidereal Time
14:55:42
Azimuth
117.407° SE
Elevation
-81.16°
Doppler factor
1
Orbital elements
Apogee altitude
548.79 km
Perigee altitude
546.401 km
Semi-major axis
6,925.732 km
Eccentricity
0.0001725
Inclination
53.0558°
RAAN
76.3726°
Arg. of periapsis
84.2686°
True anomaly
275.83024°
Mean anomaly
275.8499°
Eccentric anomaly
275.84007°
Mean motion
3.76569 °/min
BSTAR
-0.0003677
Orbital period
95.6 mins
Loading maneuver chart data...
Loading SW <> Apogee altitude chart data...
Loading historical data...
Loading historical data...
Loading historical data...
Loading historical data...
Loading historical data...
Loading historical data...
Loading historical data...

STARLINK-1292 Visibility forecast

Observer location: undefined°, undefined°

Span
Click to sort rows by Start time (UTC) header in descending order
Start Az.
Max El. time (UTC)
Max El. Az.
Max El.
End time (UTC)
End Az.
7 mins2025-05-09 23:10:49.524Z236.696° WSW2025-05-09 23:13:49.524Z329.421° NNW44.116°2025-05-09 23:17:49.524Z47.648° ENE
4 mins2025-05-10 00:52:49.524Z320.092° NNW2025-05-10 00:53:49.524Z339.587° N18.384°2025-05-10 00:56:49.524Z27.331° NE
4 mins2025-05-10 04:13:49.524Z350.108° N2025-05-10 04:15:49.524Z31.979° NE20.983°2025-05-10 04:17:49.524Z67.459° ENE
6 mins2025-05-10 05:52:49.524Z305.122° NW2025-05-10 05:55:49.524Z161.762° S42.387°2025-05-10 05:58:49.524Z136.744° SSE
|